RANA Weather Reports


Display with metric or nautical units.
time (UTC)temp
F
wind
direction
speed
MPH
gust
MPH
rain 1hr
in
rain 24hr
in
rain mn
in
humidity
%
barometer
mb
20260906150011 68 352 0.0 2.0 0.00 0.00 0.00 41
20260906145512 68 344 0.0 2.0 0.00 0.00 0.00 40
20260906145010 68 274 2.0 2.0 0.00 0.00 0.00 42
20260906144510 66 302 2.0 4.0 0.00 0.00 0.00 41
20260906144011 66 279 2.0 4.0 0.00 0.00 0.00 43
20260906143510 68 327 2.0 7.0 0.00 0.00 0.00 40
20260906143010 68 291 2.0 4.0 0.00 0.00 0.00 41
20260906142510 66 338 0.0 2.0 0.00 0.00 0.00 42
20260906142010 66 322 4.0 7.0 0.00 0.00 0.00 43
20260906141510 66 325 2.0 4.0 0.00 0.00 0.00 42
20260906141011 66 328 2.0 4.0 0.00 0.00 0.00 42
20260906140511 66 328 2.0 4.0 0.00 0.00 0.00 41
20260906140010 66 315 4.0 4.0 0.00 0.00 0.00 42
20260906135510 66 333 4.0 7.0 0.00 0.00 0.00 41
20260906135010 66 287 4.0 7.0 0.00 0.00 0.00 42
20260906134511 66 308 9.0 11.0 0.00 0.00 0.00 43
20260906134010 66 300 4.0 9.0 0.00 0.00 0.00 41
20260906133511 66 298 0.0 2.0 0.00 0.00 0.00 43
20260906133010 64 284 4.0 7.0 0.00 0.00 0.00 43
20260906132511 64 310 4.0 7.0 0.00 0.00 0.00 45
20260906132010 64 314 9.0 11.0 0.00 0.00 0.00 44
20260906131510 66 322 9.0 13.0 0.00 0.00 0.00 43
20260906131010 66 307 4.0 7.0 0.00 0.00 0.00 45
20260906130510 64 283 7.0 11.0 0.00 0.00 0.00 43
20260906130010 64 321 7.0 9.0 0.00 0.00 0.00 43
20260906125510 64 317 9.0 11.0 0.00 0.00 0.00 43
20260906125010 64 315 7.0 9.0 0.00 0.00 0.00 43
20260906124510 64 340 4.0 7.0 0.00 0.00 0.00 44
20260906124011 64 281 2.0 4.0 0.00 0.00 0.00 43
20260906123511 64 278 2.0 4.0 0.00 0.00 0.00 43
20260906123010 64 273 9.0 9.0 0.00 0.00 0.00 44
20260906122511 64 283 9.0 11.0 0.00 0.00 0.00 45
20260906122012 64 288 9.0 11.0 0.00 0.00 0.00 43
20260906121510 64 295 4.0 7.0 0.00 0.00 0.00 46
20260906121010 64 323 4.0 7.0 0.00 0.00 0.00 44
20260906120510 64 334 2.0 4.0 0.00 0.00 0.00 46
20260906115511 64 297 7.0 9.0 0.00 0.00 0.00 45
20260906115004 63 316 7.0 9.0 0.00 0.00 0.00 48
20260906114011 64 338 11.0 13.0 0.00 0.00 0.00 46
20260906113510 64 286 4.0 9.0 0.00 0.00 0.00 44
20260906113010 64 316 2.0 4.0 0.00 0.00 0.00 48
20260906112511 63 318 7.0 9.0 0.00 0.00 0.00 47
20260906112013 63 331 7.0 9.0 0.00 0.00 0.00 47
20260906111510 63 332 7.0 7.0 0.00 0.00 0.00 46
20260906111011 63 325 13.0 16.0 0.00 0.00 0.00 49
20260906110511 63 288 9.0 11.0 0.00 0.00 0.00 48
20260906110010 64 263 9.0 11.0 0.00 0.00 0.00 47
20260906105510 63 301 7.0 7.0 0.00 0.00 0.00 46
20260906105010 64 261 9.0 9.0 0.00 0.00 0.00 45
20260906104510 61 299 7.0 9.0 0.00 0.00 0.00 49
20260906104011 63 276 7.0 9.0 0.00 0.00 0.00 48
20260906103511 63 293 7.0 9.0 0.00 0.00 0.00 47
20260906103011 64 322 7.0 9.0 0.00 0.00 0.00 46
20260906102510 63 302 4.0 7.0 0.00 0.00 0.00 46
20260906102010 63 313 4.0 7.0 0.00 0.00 0.00 49
20260906101510 63 299 7.0 9.0 0.00 0.00 0.00 49
20260906101011 63 315 4.0 7.0 0.00 0.00 0.00 51
20260906100510 59 317 7.0 9.0 0.00 0.00 0.00 55
20260906100011 59 322 4.0 9.0 0.00 0.00 0.00 54
20260906095511 61 339 4.0 7.0 0.00 0.00 0.00 50
20260906095010 61 310 4.0 9.0 0.00 0.00 0.00 50
20260906094511 59 321 2.0 4.0 0.00 0.00 0.00 54
20260906094010 57 309 7.0 9.0 0.00 0.00 0.00 56
20260906093510 59 326 9.0 11.0 0.00 0.00 0.00 55
20260906093010 61 303 2.0 2.0 0.00 0.00 0.00 52
20260906092511 61 291 9.0 11.0 0.00 0.00 0.00 52
20260906092012 57 336 4.0 7.0 0.00 0.00 0.00 56
20260906091510 57 309 7.0 9.0 0.00 0.00 0.00 57
20260906091010 61 334 4.0 7.0 0.00 0.00 0.00 53
20260906090510 61 345 4.0 7.0 0.00 0.00 0.00 51
20260906090010 63 350 7.0 9.0 0.00 0.00 0.00 51
20260906085510 61 307 9.0 11.0 0.00 0.00 0.00 52
20260906085010 61 330 7.0 11.0 0.00 0.00 0.00 52
20260906084511 59 308 9.0 11.0 0.00 0.00 0.00 54
20260906084010 59 330 4.0 4.0 0.00 0.00 0.00 55
20260906083510 59 331 7.0 9.0 0.00 0.00 0.00 56
20260906083010 59 313 7.0 11.0 0.00 0.00 0.00 56
20260906082509 59 312 9.0 9.0 0.00 0.00 0.00 55
20260906082014 59 295 7.0 9.0 0.00 0.00 0.00 57
20260906081511 59 313 7.0 11.0 0.00 0.00 0.00 58
20260906081010 59 294 7.0 7.0 0.00 0.00 0.00 57
20260906080510 57 294 7.0 11.0 0.00 0.00 0.00 59
20260906080011 57 299 11.0 13.0 0.00 0.00 0.00 59
20260906075510 57 334 9.0 11.0 0.00 0.00 0.00 62
20260906075010 59 301 7.0 9.0 0.00 0.00 0.00 61
20260906074511 59 293 7.0 7.0 0.00 0.00 0.00 60
20260906074011 59 321 4.0 7.0 0.00 0.00 0.00 61
20260906073510 57 293 7.0 9.0 0.00 0.00 0.00 61
20260906073011 57 314 7.0 11.0 0.00 0.00 0.00 62
20260906072512 57 303 7.0 9.0 0.00 0.00 0.00 63
20260906072010 57 332 7.0 11.0 0.00 0.00 0.00 63
20260906071511 57 329 4.0 7.0 0.00 0.00 0.00 64
20260906071010 55 296 9.0 11.0 0.00 0.00 0.00 65
20260906070510 55 303 2.0 4.0 0.00 0.00 0.00 66
20260906070011 55 302 9.0 9.0 0.00 0.00 0.00 67
20260906065511 55 315 7.0 9.0 0.00 0.00 0.00 67
20260906065011 54 313 7.0 9.0 0.00 0.00 0.00 68
20260906064511 57 288 9.0 11.0 0.00 0.00 0.00 64
20260906064010 57 295 9.0 11.0 0.00 0.00 0.00 64
20260906063511 57 297 7.0 9.0 0.00 0.00 0.00 65
20260906063009 57 304 7.0 9.0 0.00 0.00 0.00 65
20260906062510 55 312 7.0 9.0 0.00 0.00 0.00 67
20260906062012 55 301 7.0 9.0 0.00 0.00 0.00 69
20260906061510 55 307 7.0 9.0 0.00 0.00 0.00 69
20260906060511 55 311 9.0 11.0 0.00 0.00 0.00 70
20260906060010 55 309 11.0 13.0 0.00 0.00 0.00 69
20260906055511 55 313 7.0 9.0 0.00 0.00 0.00 70
20260906055010 55 315 7.0 9.0 0.00 0.00 0.00 70
20260906054510 54 307 9.0 11.0 0.00 0.00 0.00 71
20260906054009 54 308 9.0 11.0 0.00 0.00 0.00 72
20260906053510 54 312 9.0 11.0 0.00 0.00 0.00 72
20260906053010 54 315 9.0 11.0 0.00 0.00 0.00 72
20260906052511 54 314 9.0 11.0 0.00 0.00 0.00 72
20260906052012 54 311 11.0 13.0 0.00 0.00 0.00 72
20260906051511 54 314 11.0 13.0 0.00 0.00 0.00 73
20260906051010 54 304 11.0 13.0 0.00 0.00 0.00 72
20260906050509 54 299 13.0 16.0 0.00 0.00 0.00 71
20260906050010 55 292 11.0 16.0 0.00 0.00 0.00 69
20260906045510 55 305 11.0 13.0 0.00 0.00 0.00 69
20260906045010 54 303 11.0 13.0 0.00 0.00 0.00 70
20260906044512 54 306 9.0 11.0 0.00 0.00 0.00 72
20260906044011 54 310 9.0 11.0 0.00 0.00 0.00 72
20260906043510 54 313 9.0 11.0 0.00 0.00 0.00 72
20260906043010 54 303 9.0 11.0 0.00 0.00 0.00 72
20260906042511 54 304 11.0 13.0 0.00 0.00 0.00 72
20260906042010 54 314 11.0 13.0 0.00 0.00 0.00 71
20260906041511 54 307 9.0 11.0 0.00 0.00 0.00 72
20260906041011 54 299 11.0 11.0 0.00 0.00 0.00 73
20260906040510 54 294 9.0 13.0 0.00 0.00 0.00 73
20260906040010 54 293 11.0 13.0 0.00 0.00 0.00 73
20260906035510 54 289 11.0 11.0 0.00 0.00 0.00 72
20260906035009 54 289 11.0 13.0 0.00 0.00 0.00 72
20260906034510 54 293 11.0 13.0 0.00 0.00 0.00 72
20260906034010 54 291 11.0 16.0 0.00 0.00 0.00 71
20260906033511 54 288 11.0 13.0 0.00 0.00 0.00 72
20260906033010 54 284 11.0 16.0 0.00 0.00 0.00 72
20260906032510 54 290 11.0 13.0 0.00 0.00 0.00 72
20260906032012 54 288 13.0 13.0 0.00 0.00 0.00 72
20260906031510 54 286 13.0 16.0 0.00 0.00 0.00 72
20260906031011 54 287 13.0 13.0 0.00 0.00 0.00 73
20260906030510 54 287 13.0 13.0 0.00 0.00 0.00 72
20260906030011 54 288 13.0 16.0 0.00 0.00 0.00 73
20260906025511 54 284 16.0 18.0 0.00 0.00 0.00 73
20260906025010 54 282 16.0 16.0 0.00 0.00 0.00 73
20260906024511 54 284 16.0 18.0 0.00 0.00 0.00 73
20260906024011 54 282 16.0 18.0 0.00 0.00 0.00 72
20260906023009 54 279 16.0 16.0 0.00 0.00 0.00 72
20260906022511 54 277 13.0 13.0 0.00 0.00 0.00 71
20260906022011 55 275 13.0 16.0 0.00 0.00 0.00 71
20260906021510 55 281 11.0 13.0 0.00 0.00 0.00 70
20260906021011 55 277 11.0 13.0 0.00 0.00 0.00 71
20260906020511 55 281 11.0 13.0 0.00 0.00 0.00 71
20260906020010 54 283 11.0 13.0 0.00 0.00 0.00 71
20260906015511 54 281 11.0 13.0 0.00 0.00 0.00 72
20260906015010 54 284 11.0 13.0 0.00 0.00 0.00 72
20260906014510 54 294 11.0 13.0 0.00 0.00 0.00 72
20260906014009 54 283 11.0 13.0 0.00 0.00 0.00 72
20260906013510 54 284 13.0 16.0 0.00 0.00 0.00 72
20260906013011 54 286 11.0 11.0 0.00 0.00 0.00 72
20260906012511 55 301 13.0 13.0 0.00 0.00 0.00 70
20260906012011 55 307 13.0 16.0 0.00 0.00 0.00 70
20260906011510 55 304 13.0 16.0 0.00 0.00 0.00 70
20260906011011 55 305 18.0 20.0 0.00 0.00 0.00 69
20260906010511 55 295 16.0 18.0 0.00 0.00 0.00 69
20260906010010 55 286 11.0 13.0 0.00 0.00 0.00 69
20260906005510 55 279 11.0 13.0 0.00 0.00 0.00 68
20260906005009 55 289 11.0 11.0 0.00 0.00 0.00 69
20260906004510 55 293 11.0 11.0 0.00 0.00 0.00 69
20260906004010 55 303 11.0 13.0 0.00 0.00 0.00 69
20260906003510 55 308 11.0 16.0 0.00 0.00 0.00 69
20260906003011 55 299 13.0 18.0 0.00 0.00 0.00 68
20260906002511 55 299 13.0 16.0 0.00 0.00 0.00 69
20260906002012 55 294 13.0 13.0 0.00 0.00 0.00 69
20260906001510 55 298 13.0 16.0 0.00 0.00 0.00 68
20260906001010 57 301 13.0 16.0 0.00 0.00 0.00 67
20260906000511 55 304 13.0 16.0 0.00 0.00 0.00 68
20260906000011 55 309 13.0 16.0 0.00 0.00 0.00 67
20260905235511 57 310 18.0 20.0 0.00 0.00 0.00 67
20260905235009 57 309 16.0 20.0 0.00 0.00 0.00 66
20260905234511 57 313 16.0 20.0 0.00 0.00 0.00 66
20260905234010 57 308 16.0 20.0 0.00 0.00 0.00 66
20260905233511 57 305 18.0 20.0 0.00 0.00 0.00 66
20260905233010 57 312 18.0 20.0 0.00 0.00 0.00 65
20260905232510 57 313 16.0 20.0 0.00 0.00 0.00 65
20260905232011 57 307 13.0 18.0 0.00 0.00 0.00 65
20260905231511 57 307 16.0 20.0 0.00 0.00 0.00 64
20260905231010 57 309 16.0 18.0 0.00 0.00 0.00 64
20260905230510 57 304 13.0 16.0 0.00 0.00 0.00 64
20260905230010 57 303 13.0 16.0 0.00 0.00 0.00 64
20260905225510 57 307 18.0 20.0 0.00 0.00 0.00 63
20260905225010 57 299 16.0 18.0 0.00 0.00 0.00 63
20260905224510 57 301 18.0 22.0 0.00 0.00 0.00 63
20260905224010 57 307 16.0 18.0 0.00 0.00 0.00 63
20260905223510 59 296 18.0 20.0 0.00 0.00 0.00 62
20260905223010 59 294 18.0 20.0 0.00 0.00 0.00 61
20260905222504 59 294 18.0 22.0 0.00 0.00 0.00 61
20260905222011 59 293 16.0 18.0 0.00 0.00 0.00 61
20260905221511 59 297 13.0 16.0 0.00 0.00 0.00 61
20260905221011 59 295 18.0 20.0 0.00 0.00 0.00 61
20260905220010 59 306 16.0 20.0 0.00 0.00 0.00 61
20260905215511 59 306 18.0 20.0 0.00 0.00 0.00 60
20260905215010 59 303 18.0 22.0 0.00 0.00 0.00 60
20260905214511 59 305 16.0 20.0 0.00 0.00 0.00 61
20260905214011 59 301 16.0 18.0 0.00 0.00 0.00 60
20260905213511 59 301 18.0 18.0 0.00 0.00 0.00 60
20260905213010 59 307 18.0 20.0 0.00 0.00 0.00 59
20260905212510 59 303 18.0 22.0 0.00 0.00 0.00 59
20260905212011 59 309 18.0 22.0 0.00 0.00 0.00 59
20260905211510 59 318 16.0 20.0 0.00 0.00 0.00 59
20260905211010 59 306 20.0 25.0 0.00 0.00 0.00 59
20260905210510 59 302 20.0 22.0 0.00 0.00 0.00 59
20260905210017 59 302 16.0 18.0 0.00 0.00 0.00 58
20260905205509 59 292 20.0 27.0 0.00 0.00 0.00 58
20260905205011 59 299 18.0 22.0 0.00 0.00 0.00 58
20260905204510 59 295 18.0 22.0 0.00 0.00 0.00 57
20260905204010 59 293 18.0 22.0 0.00 0.00 0.00 56
20260905203510 59 300 16.0 18.0 0.00 0.00 0.00 57
20260905203011 59 296 18.0 20.0 0.00 0.00 0.00 57
20260905202510 59 294 18.0 20.0 0.00 0.00 0.00 56
20260905202012 61 295 18.0 20.0 0.00 0.00 0.00 55
20260905201510 61 295 16.0 18.0 0.00 0.00 0.00 56
20260905201014 61 297 16.0 18.0 0.00 0.00 0.00 55
20260905200510 61 295 16.0 20.0 0.00 0.00 0.00 55
20260905200013 61 290 18.0 20.0 0.00 0.00 0.00 54
20260905195510 61 291 18.0 20.0 0.00 0.00 0.00 54
20260905195010 61 296 20.0 25.0 0.00 0.00 0.00 54
20260905194511 61 292 20.0 22.0 0.00 0.00 0.00 53
20260905194010 61 286 22.0 25.0 0.00 0.00 0.00 53
20260905193526 61 291 20.0 22.0 0.00 0.00 0.00 53
20260905193009 61 289 18.0 20.0 0.00 0.00 0.00 52
20260905192515 61 293 18.0 20.0 0.00 0.00 0.00 52
20260905192010 61 289 18.0 20.0 0.00 0.00 0.00 52
20260905191511 61 286 16.0 18.0 0.00 0.00 0.00 52
20260905191010 61 289 16.0 18.0 0.00 0.00 0.00 52
20260905190510 61 294 16.0 18.0 0.00 0.00 0.00 52
20260905190010 61 289 16.0 18.0 0.00 0.00 0.00 51
20260905185510 61 297 13.0 16.0 0.00 0.00 0.00 51
20260905185010 63 292 16.0 18.0 0.00 0.00 0.00 51
20260905184510 63 296 20.0 25.0 0.00 0.00 0.00 50
20260905184010 63 293 18.0 22.0 0.00 0.00 0.00 50
20260905183510 63 306 18.0 25.0 0.00 0.00 0.00 50
20260905183011 63 291 20.0 25.0 0.00 0.00 0.00 49
20260905182510 63 302 22.0 27.0 0.00 0.00 0.00 49
20260905182013 63 287 25.0 29.0 0.00 0.00 0.00 49
20260905181510 63 288 18.0 20.0 0.00 0.00 0.00 50
20260905181011 63 292 16.0 18.0 0.00 0.00 0.00 49
20260905180511 63 294 18.0 20.0 0.00 0.00 0.00 49
20260905180004 63 288 18.0 20.0 0.00 0.00 0.00 48
20260905175513 63 290 18.0 20.0 0.00 0.00 0.00 48
20260905175010 63 292 16.0 20.0 0.00 0.00 0.00 48
20260905174510 63 293 22.0 25.0 0.00 0.00 0.00 47
20260905174010 63 289 20.0 25.0 0.00 0.00 0.00 48
20260905173527 63 289 22.0 25.0 0.00 0.00 0.00 47
20260905173011 64 290 22.0 25.0 0.00 0.00 0.00 47
20260905172511 64 291 22.0 27.0 0.00 0.00 0.00 46
20260905172012 64 291 31.0 36.0 0.00 0.00 0.00 45
20260905171518 64 292 25.0 29.0 0.00 0.00 0.00 46
20260905171009 64 296 25.0 29.0 0.00 0.00 0.00 45
20260905170510 64 295 22.0 25.0 0.00 0.00 0.00 46
20260905170010 64 298 25.0 27.0 0.00 0.00 0.00 45
20260905165510 66 293 25.0 29.0 0.00 0.00 0.00 45
20260905165011 66 286 22.0 27.0 0.00 0.00 0.00 44
20260905164511 66 280 25.0 29.0 0.00 0.00 0.00 45
20260905164010 66 288 25.0 29.0 0.00 0.00 0.00 45
20260905163510 66 292 22.0 27.0 0.00 0.00 0.00 46
20260905163019 66 296 20.0 22.0 0.00 0.00 0.00 45
20260905162510 66 300 25.0 27.0 0.00 0.00 0.00 45
20260905162011 66 316 22.0 27.0 0.00 0.00 0.00 45
20260905161510 66 292 25.0 31.0 0.00 0.00 0.00 44
20260905161009 66 297 27.0 29.0 0.00 0.00 0.00 46
20260905160511 66 300 20.0 25.0 0.00 0.00 0.00 46
20260905160011 66 308 20.0 27.0 0.00 0.00 0.00 46
20260905155511 66 310 22.0 27.0 0.00 0.00 0.00 46
20260905154517 66 308 20.0 25.0 0.00 0.00 0.00 47
20260905154010 66 318 16.0 20.0 0.00 0.00 0.00 47
20260905153510 66 311 22.0 27.0 0.00 0.00 0.00 43
20260905153011 68 302 25.0 29.0 0.00 0.00 0.00 42
20260905152510 68 299 25.0 29.0 0.00 0.00 0.00 43
20260905152014 66 280 25.0 29.0 0.00 0.00 0.00 43
20260905151510 66 297 20.0 25.0 0.00 0.00 0.00 44
20260905151010 66 294 25.0 29.0 0.00 0.00 0.00 43
20260905150510 66 296 25.0 29.0 0.00 0.00 0.00 43